Tracking 29088 objects as of 13-Jul-2024
HD Live streaming from Space Station
objects crossing your sky now

COSMOS 304

Track COSMOS 304 now!
10-day predictions
COSMOS 304 is classified as:


NORAD ID: 4138
Int'l Code: 1969-091A
Perigee: 735.1 km
Apogee: 755.1 km
Inclination: 74.0 °
Period: 99.6 minutes
Semi major axis: 7116 km
RCS: 1.933 m2 (large)
Launch date: October 21, 1969
Source: Commonwealth of Independent States (former USSR) (CIS)
Launch site: PLESETSK MISSILE AND SPACE COMPLEX (PKMTR)
Your satellite tracking list
Your tracking list is empty




NASA's NSSDC Master Catalog

Two Line Element Set (TLE):
1 04138U 69091A   24194.88730928  .00000123  00000-0  41829-4 0  9990
2 04138  74.0394 106.0675 0014055 283.9148  76.0446 14.46246480885906
Source of the keplerian elements: AFSPC